| time (UTC) | temp C | wind direction | speed KPH | gust KPH | rain 1hr cm | rain 24hr cm | rain mn cm | humidity % | barometer mb |
| 20260503193029 | 25 | 240 | 6.4 | 12.9 | 0.00 | 0.00 | 0.00 | 50 | 1013.0 |
| 20260503192017 | 24 | 241 | 4.8 | 9.7 | 0.00 | 0.00 | 0.00 | 52 | 1013.2 |
| 20260503191027 | 24 | 216 | 3.2 | 6.4 | 0.00 | 0.00 | 0.00 | 52 | 1013.4 |
| 20260503190030 | 23 | 255 | 3.2 | 6.4 | 0.00 | 0.00 | 0.00 | 54 | 1013.4 |
| 20260503185052 | 23 | 254 | 3.2 | 8.0 | 0.00 | 0.00 | 0.00 | 54 | 1013.6 |
| 20260503184018 | 22 | 226 | 4.8 | 9.7 | 0.00 | 0.00 | 0.00 | 55 | 1013.7 |
| 20260503183022 | 22 | 271 | 4.8 | 8.0 | 0.00 | 0.00 | 0.00 | 56 | 1013.7 |
| 20260503182024 | 22 | 270 | 3.2 | 4.8 | 0.00 | 0.00 | 0.00 | 59 | 1013.9 |
| 20260503181027 | 21 | 276 | 4.8 | 6.4 | 0.00 | 0.00 | 0.00 | 59 | 1013.9 |
| 20260503180024 | 22 | 210 | 1.6 | 4.8 | 0.00 | 0.00 | 0.00 | 60 | 1014.0 |
| 20260503175028 | 21 | 68 | 4.8 | 6.4 | 0.00 | 0.00 | 0.00 | 60 | 1014.0 |
| 20260503174033 | 21 | 203 | 3.2 | 4.8 | 0.00 | 0.00 | 0.00 | 62 | 1014.1 |
| 20260503173017 | 21 | 70 | 3.2 | 4.8 | 0.00 | 0.00 | 0.00 | 63 | 1014.2 |
| 20260503172020 | 20 | 235 | 3.2 | 6.4 | 0.00 | 0.00 | 0.00 | 65 | 1014.2 |
| 20260503171023 | 19 | 352 | 3.2 | 6.4 | 0.00 | 0.00 | 0.00 | 67 | 1014.2 |
| 20260503131032 | 11 | 0.0 | 0.0 | 0.00 | 0.00 | 0.00 | 98 | 1014.2 | |
| 20260503081016 | 15 | 130 | 3.2 | 4.8 | 0.00 | 0.00 | 0.00 | 78 | 1014.7 |
| 20260503072026 | 16 | 118 | 4.8 | 6.4 | 0.00 | 0.00 | 0.00 | 69 | 1014.7 |
| 20260503071024 | 16 | 110 | 4.8 | 4.8 | 0.00 | 0.00 | 0.00 | 70 | 1014.7 |
| 20260503055026 | 17 | 123 | 3.2 | 4.8 | 0.00 | 0.00 | 0.00 | 65 | 1014.4 |
| 20260503054030 | 17 | 117 | 3.2 | 4.8 | 0.00 | 0.00 | 0.00 | 66 | 1014.4 |
| 20260503053016 | 17 | 113 | 3.2 | 4.8 | 0.00 | 0.00 | 0.00 | 67 | 1014.4 |
| 20260503052039 | 17 | 105 | 1.6 | 3.2 | 0.00 | 0.00 | 0.00 | 66 | 1014.2 |
| 20260503051046 | 17 | 116 | 4.8 | 4.8 | 0.00 | 0.00 | 0.00 | 66 | 1014.2 |
| 20260503050025 | 17 | 0.0 | 0.0 | 0.00 | 0.00 | 0.00 | 64 | 1014.2 | |
| 20260503045021 | 17 | 113 | 1.6 | 3.2 | 0.00 | 0.00 | 0.00 | 63 | 1014.1 |
| 20260503044019 | 18 | 148 | 0.0 | 3.2 | 0.00 | 0.00 | 0.00 | 61 | 1014.0 |
| 20260503043017 | 18 | 238 | 0.0 | 3.2 | 0.00 | 0.00 | 0.00 | 59 | 1014.0 |
| 20260503042027 | 18 | 225 | 1.6 | 3.2 | 0.00 | 0.00 | 0.00 | 59 | 1013.9 |
| 20260503041030 | 18 | 277 | 1.6 | 3.2 | 0.00 | 0.00 | 0.00 | 58 | 1013.7 |
| 20260503040015 | 19 | 200 | 3.2 | 4.8 | 0.00 | 0.00 | 0.00 | 57 | 1013.5 |
| 20260503035018 | 19 | 277 | 1.6 | 3.2 | 0.00 | 0.00 | 0.00 | 56 | 1013.4 |
| 20260503034022 | 20 | 251 | 3.2 | 8.0 | 0.00 | 0.00 | 0.00 | 56 | 1013.3 |
| 20260503033024 | 20 | 227 | 3.2 | 6.4 | 0.00 | 0.00 | 0.00 | 55 | 1013.2 |
| 20260503032027 | 21 | 234 | 4.8 | 6.4 | 0.00 | 0.00 | 0.00 | 53 | 1013.0 |
| 20260503031030 | 21 | 262 | 4.8 | 6.4 | 0.00 | 0.00 | 0.00 | 52 | 1012.8 |
| 20260503030036 | 22 | 222 | 4.8 | 8.0 | 0.00 | 0.00 | 0.00 | 50 | 1012.8 |
| 20260503025020 | 23 | 234 | 4.8 | 6.4 | 0.00 | 0.00 | 0.00 | 48 | 1012.8 |
| 20260503024018 | 23 | 258 | 3.2 | 4.8 | 0.00 | 0.00 | 0.00 | 47 | 1012.7 |
| 20260503023020 | 24 | 292 | 4.8 | 8.0 | 0.00 | 0.00 | 0.00 | 46 | 1012.7 |
| 20260503022023 | 24 | 249 | 6.4 | 8.0 | 0.00 | 0.00 | 0.00 | 46 | 1012.7 |
| 20260503021046 | 25 | 239 | 6.4 | 8.0 | 0.00 | 0.00 | 0.00 | 45 | 1012.7 |
| 20260503020029 | 25 | 230 | 6.4 | 9.7 | 0.00 | 0.00 | 0.00 | 44 | 1012.7 |
| 20260503015033 | 25 | 292 | 4.8 | 8.0 | 0.00 | 0.00 | 0.00 | 45 | 1012.7 |
| 20260503014018 | 25 | 297 | 4.8 | 8.0 | 0.00 | 0.00 | 0.00 | 45 | 1012.7 |
| 20260503013021 | 25 | 267 | 4.8 | 8.0 | 0.00 | 0.00 | 0.00 | 46 | 1012.7 |
| 20260503012026 | 25 | 256 | 6.4 | 11.3 | 0.00 | 0.00 | 0.00 | 44 | 1012.8 |
| 20260503011023 | 25 | 200 | 4.8 | 9.7 | 0.00 | 0.00 | 0.00 | 45 | 1012.8 |
| 20260503010019 | 25 | 268 | 6.4 | 9.7 | 0.00 | 0.00 | 0.00 | 46 | 1012.9 |
| 20260503005058 | 24 | 259 | 8.0 | 11.3 | 0.00 | 0.00 | 0.00 | 46 | 1013.0 |
| 20260503004032 | 24 | 240 | 8.0 | 12.9 | 0.00 | 0.00 | 0.00 | 45 | 1013.0 |
| 20260503003017 | 24 | 312 | 6.4 | 9.7 | 0.00 | 0.00 | 0.00 | 45 | 1013.0 |
| 20260503002053 | 25 | 238 | 8.0 | 11.3 | 0.00 | 0.00 | 0.00 | 45 | 1013.2 |
| 20260503001018 | 24 | 249 | 6.4 | 11.3 | 0.00 | 0.00 | 0.00 | 46 | 1013.2 |
| 20260503000026 | 24 | 252 | 4.8 | 9.7 | 0.00 | 0.00 | 0.00 | 47 | 1013.2 |
| 20260502235024 | 24 | 338 | 6.4 | 11.3 | 0.00 | 0.00 | 0.00 | 48 | 1013.3 |
| 20260502234047 | 24 | 338 | 8.0 | 12.9 | 0.00 | 0.00 | 0.00 | 49 | 1013.4 |
| 20260502233031 | 24 | 229 | 8.0 | 9.7 | 0.00 | 0.00 | 0.00 | 50 | 1013.7 |
| 20260502232016 | 23 | 229 | 8.0 | 12.9 | 0.00 | 0.00 | 0.00 | 51 | 1013.9 |
| 20260502231053 | 23 | 220 | 8.0 | 12.9 | 0.00 | 0.00 | 0.00 | 51 | 1014.0 |
| 20260502230017 | 24 | 305 | 4.8 | 9.7 | 0.00 | 0.00 | 0.00 | 51 | 1014.1 |
| 20260502225021 | 25 | 292 | 6.4 | 9.7 | 0.00 | 0.00 | 0.00 | 52 | 1014.3 |
| 20260502224027 | 23 | 248 | 4.8 | 9.7 | 0.00 | 0.00 | 0.00 | 53 | 1014.4 |
| 20260502223027 | 23 | 337 | 8.0 | 9.7 | 0.00 | 0.00 | 0.00 | 53 | 1014.4 |
| 20260502222024 | 24 | 263 | 6.4 | 14.5 | 0.00 | 0.00 | 0.00 | 54 | 1014.4 |
| 20260502221027 | 23 | 319 | 4.8 | 8.0 | 0.00 | 0.00 | 0.00 | 54 | 1014.7 |
| 20260502220030 | 23 | 205 | 4.8 | 9.7 | 0.00 | 0.00 | 0.00 | 55 | 1014.7 |
| 20260502215026 | 22 | 266 | 8.0 | 12.9 | 0.00 | 0.00 | 0.00 | 56 | 1014.8 |
| 20260502214018 | 23 | 348 | 6.4 | 11.3 | 0.00 | 0.00 | 0.00 | 56 | 1014.9 |
| 20260502213020 | 22 | 341 | 4.8 | 8.0 | 0.00 | 0.00 | 0.00 | 55 | 1014.9 |
| 20260502212017 | 23 | 91 | 3.2 | 6.4 | 0.00 | 0.00 | 0.00 | 55 | 1015.2 |
| 20260502211046 | 22 | 3 | 4.8 | 9.7 | 0.00 | 0.00 | 0.00 | 54 | 1015.4 |
| 20260502210030 | 22 | 306 | 4.8 | 8.0 | 0.00 | 0.00 | 0.00 | 57 | 1015.4 |
| 20260502205018 | 22 | 349 | 4.8 | 8.0 | 0.00 | 0.00 | 0.00 | 55 | 1015.4 |
| 20260502204028 | 22 | 346 | 6.4 | 9.7 | 0.00 | 0.00 | 0.00 | 58 | 1015.4 |
| 20260502203027 | 21 | 277 | 4.8 | 11.3 | 0.00 | 0.00 | 0.00 | 58 | 1015.4 |
| 20260502202027 | 21 | 353 | 4.8 | 8.0 | 0.00 | 0.00 | 0.00 | 58 | 1015.6 |
| 20260502201049 | 21 | 342 | 3.2 | 9.7 | 0.00 | 0.00 | 0.00 | 60 | 1015.7 |
| 20260502200032 | 20 | 243 | 4.8 | 8.0 | 0.00 | 0.00 | 0.00 | 61 | 1015.9 |
| 20260502195057 | 20 | 249 | 4.8 | 8.0 | 0.00 | 0.00 | 0.00 | 63 | 1016.0 |
| 20260502194040 | 21 | 188 | 1.6 | 4.8 | 0.00 | 0.00 | 0.00 | 63 | 1016.1 |